Regional Weather Roundup
Issued by NWS

Home | Current Version | Previous Version | Text Only | Print | Product List | Glossary Off
Versions: 1 2 3 4 5 6 7 8 9 10 11 12 13 14 15 16 17 18 19 20 21 22 23 24 25 26 27 28

000
ASUS45 KSLC 250510
RWRUT

UTAH REGIONAL WEATHER ROUNDUP
NATIONAL WEATHER SERVICE SALT LAKE CITY UT
1100 PM MDT SUN SEP 24 2017

UTZ001>011-023>025-250600-

NORTHERN UTAH

CITY           SKY/WX    TMP DP  RH WIND       PRES   REMARKS
BRIGHAM CITY   CLOUDY    46  39  78 CALM      30.12S
HILL AFB       CLOUDY    42  39  89 SE5       30.10F
LOGAN          CLOUDY    44  41  89 CALM      30.10S
OGDEN          CLOUDY    44  40  85 S7        30.10S
SALT LAKE CITY MOCLDY    45  43  93 SE9       30.11S
TOOELE VALLEY  CLOUDY    45  37  76 S12       30.11S
WENDOVER       MOCLDY    49  37  63 N3        30.10S
HEBER CITY     CLOUDY    37  34  87 E3        30.12R
WEST JORDAN    CLOUDY    43  43 100 S6        30.13S

$$

UTZ011>015-024>027-250600-

CENTRAL/NORTHEAST UTAH

CITY           SKY/WX    TMP DP  RH WIND       PRES   REMARKS
PROVO AIRPORT  CLOUDY    44  40  85 E3        30.14S
MOAB/CANYONLAN CLEAR     50  32  50 W14       30.04R
DELTA          CLEAR     37  36  93 NE5       30.13S WCI  34
PRICE          PTCLDY    39  32  76 CALM      30.10R
RICHFIELD      CLEAR     36  37 100 SW3       30.17R
ROOSEVELT      CLOUDY    41  36  81 W3        30.09R
VERNAL         CLOUDY    44  37  76 NW5       30.08R

$$

UTZ013>016-019>022-027-250600-

SOUTHERN UTAH

CITY           SKY/WX    TMP DP  RH WIND       PRES   REMARKS
BRYCE CANYON   CLEAR     32  23  69 N5        30.15S WCI  27
CEDAR CITY     CLEAR     37  33  85 N7        30.10R WCI  32
MILFORD        CLEAR     39  35  86 NW6       30.11S WCI  35
ST GEORGE      MOCLDY    61  30  31 CALM      30.01R
HANKSVILLE     CLEAR     50  28  43 NW5       30.09S
KANAB          CLEAR     48  27  43 N6        30.11R
BLANDING         N/A     39  24  55 N9        30.12S WCI  33

$$

REGIONAL REPORTS     COLORADO/ARIZONA

CITY           SKY/WX    TMP DP  RH WIND       PRES   REMARKS
CRAIG, CO      CLOUDY    42  31  64 CALM      30.10S
GRAND JUNCTION CLEAR     49  31  49 SW5       30.04R
RIFLE, CO      CLEAR     45  30  55 E5        30.07R
MONTROSE, CO   CLEAR     43  24  47 S10       30.09R
CORTEZ, CO     CLEAR     35  29  78 NE7       30.06S WCI  29
PAGE, AZ       CLEAR     58  27  30 NW8       30.01R
GRAND CANYON   CLEAR     32  13  45 CALM      30.09R
KINGMAN, AZ    CLEAR     53  25  33 E9        29.99S
FLAGSTAFF, AZ  CLEAR     33  12  41 CALM      30.08S

$$

REGIONAL REPORTS    NEVADA/IDAHO/WYOMING

CITY           SKY/WX    TMP DP  RH WIND       PRES   REMARKS
LAS VEGAS, NV  CLEAR     67  28  23 SW3       29.96R
ELY, NY        CLEAR     34  26  72 W8        30.15R WCI  27
ELKO, NV       CLEAR     37  31  78 CALM      30.12S
POCATELLO, ID  CLOUDY    48  34  58 SW8       30.09R
BURLEY, ID     CLEAR     39  32  76 S8        30.07R WCI  33
FORT BRIDGER,  CLOUDY    35  35 100 W12       30.12S WCI  27
EVANSTON, WY   SNOW      34  34 100 SW6       30.11R VSB 1/4 WCI  29
ROCK SPRINGS,  CLOUDY    34  33  96 NE13      30.09R WCI  25

$$




USA.gov is the U.S. government's official web portal to all federal, state and local government web resources and services.